Weather Roundup
Issued by NWS Corpus Christi, TX

Home | Current Version | Previous Version | Text Only | Print | Product List | Glossary On
Versions: 1 2 3 4 5 6 7 8 9 10 11 12 13 14 15 16 17 18 19 20 21 22 23 24 25 26 27 28 29 30 31 32 33 34 35 36 37 38 39 40 41 42 43 44 45 46 47 48 49 50
000
ASUS44 KCRP 230010
HRRCRP

SOUTH TEXAS REGIONAL WEATHER ROUNDUP
NATIONAL WEATHER SERVICE CORPUS CHRISTI TX
700 PM CDT TUE AUG 22 2017


TXZ229>244-230100-
...CORPUS CHRISTI AREA OBSERVATIONS...

CITY           SKY/WX    TMP DP  RH WIND       PRES   REMARKS
CORPUS CHRISTI MOSUNNY   90  73  57 SE13G20   29.96F HX  98
NAS CORPUS CHR MOSUNNY   88  76  67 SE16      29.96F HX  99
ROCKPORT       SUNNY     88  74  63 SE14      29.96F HX  96
KINGSVILLE ARP FAIR      91  71  50 SE14      29.96S HX  97
KINGSVILLE NAS MOSUNNY   89  74  60 E14G21    29.96S HX  98
ALICE            N/A     92  67  43 MISG      29.95S HX  95
FALFURRIAS     SUNNY     91  67  44 CALM      29.95S HX  94
$$

...VICTORIA AREA OBSERVATIONS...

CITY           SKY/WX    TMP DP  RH WIND       PRES   REMARKS
PORT LAVACA    SUNNY     88  72  59 SE13      29.97S HX  94
VICTORIA       SUNNY     91  69  48 SE15      29.96F HX  96
BEEVILLE       FAIR      84  79  83 SE3       29.96S HX  96
PLEASANTON     SUNNY     94  65  38 SE10G17   29.94S HX  96
SAN ANTONIO    MOSUNNY   94  64  37 CALM      29.97F HX  95
$$

...LAREDO AREA OBSERVATIONS...

CITY           SKY/WX    TMP DP  RH WIND       PRES   REMARKS
LAREDO         SUNNY     99  65  32 SE12      29.92F HX 102
COTULLA        MOSUNNY   97  60  29 SE9       29.92F HX  97
DEL RIO        SUNNY     98  59  27 E10       29.92F HX  98
MCALLEN        SUNNY     94  70  45 E16       29.94S HX 100
HEBBRONVILLE   SUNNY     90  66  44 SE14G21   29.96S HX  93
$$

...OTHER TEXAS OBSERVATIONS...

CITY           SKY/WX    TMP DP  RH WIND       PRES   REMARKS
BROWNSVILLE    MOSUNNY   88  74  63 E15       29.96F HX  96
HOUSTON        MOSUNNY   91  72  53 SE12      29.97S HX  98
COL. STATION   SUNNY     95  67  39 SE10      29.95S HX  99
AUSTIN         MOSUNNY   97  64  33 E8        29.94F HX  99
WACO           MOSUNNY   96  66  37 S5        29.94F HX  99
FORT WORTH     MOSUNNY   95  68  41 SE9       29.93F HX  99
WICHITA FALLS  CLOUDY    89  68  49 SE8       29.98R HX  93
LUBBOCK        TSTM      65  63  93 N20G36    30.19R FOG
EL PASO        NOT AVBL
$$

...MARINE OBSERVATIONS...

STATION/POSITION TIME  SKY/WX   TEMP    WIND        PRES    VSBY  WAVE   SWELL
                                AIR SEA DIR/SP/G                  HT/PER HT/PER
                 (UTC)          (F)     (DEG/KT/KT) (MB)    (MI)  (FT/S) (FT/S)
PORT ARANSAS     0000            84 87  110/ 13/ 14 1015.0F
BUOY 90 E PORT A 2250            85 86   70/  8/ 10 1015.4          3/ 6   3/ 6
BUOY 45 SE BAFFI 2250            85      90/ 12/ 14 1014.1          3/ 7   3/ 7
BUOY 200 E PT IS 2250            87 88   90/ 12/ 16 1014.8          3/ 6   2/ 6
BUOY 15 E GALVES NOT AVBL
$$




USA.gov is the U.S. government's official web portal to all federal, state and local government web resources and services.